STARLINK-33612, 63325

Orbit data source: Space-Track

STARLINK-33612, 63325 is a payload satellite owned by SpaceX/Seattle (US) in LEO that was launched on Tue, 18 Mar 2025 UTC via an FALCON 9 launch vehicle from the Air Force Eastern Test Range (AFETR). Payload-class satellites include a variety of spacecraft equipped with specific instruments for various scientific and technological missions. These include communications satellites like Starlink; space stations such as the ISS; scientific satellites like the Hubble; Earth observation satellites from companies like Planet Labs, Umbra, and HawkEye 360; GPS; miniature CubeSats for education and research; and military/defense satellites.

Loading next visibility...
Identifier
63325, 2025-057U
Orbit
LEO
Last TLE update
7 hours ago
Origin
Manufacturer
SpaceX/Seattle
Mission
Operational Commercial Communications
Bus & Motor
STARLINK V2MO, Unknown motor
Mass
575 kg wet, ~530 kg dry
Launch date (UTC)
2025-03-18 (2 months ago)
Launch vehicle
FALCON 9
Launch site
Air Force Eastern Test Range (AFETR)
Object type
Payload
Rocket body
Debris
Shape & HBR
Box + 1 Pan, 29 m
Radar Cross Section
41.120 m², Large (>1 m²)

Expand to show TLE details & history

TLE from 7 hours ago
0 STARLINK-33612
1 63325U 25057U   25128.92039658  .00000876  00000-0  41361-4 0  9998
2 63325  43.0011 312.3146 0001528 255.5935 104.4747 15.27583276  9169
Epoch: 2025-05-08T22:05Z
Definitive object data (Epoch: 2025-05-08T22:05:22.264Z)
Latitude
-0.00003°
Longitude
113.98783°
Altitude
483.077 km
Speed
7.626 km/s
True Right ascension
20h 49m 15s
True Declination
0° 00' 00"
Sunlit
Object was in daylight at TLE epoch
Visualization TLE readout
Latitude
-35.98075°
Longitude
-16.99846°
Altitude
492.441 km
Speed
7.62 km/s
Apparent Right ascension
08h 01m 58s
Apparent Declination
-75° 27' 13"
Sunlit
Object is in full shadow
Visualization observer readout
Local Sidereal Time
13:33:10
Azimuth
198.095° SSW
Elevation
-36.651°
Doppler factor
1
Orbital elements
Apogee altitude
486.033 km
Perigee altitude
483.936 km
Semi-major axis
6,863.121 km
Eccentricity
0.0001528
Inclination
43.0011°
RAAN
312.3146°
Arg. of periapsis
255.5935°
True anomaly
104.49165°
Mean anomaly
104.4747°
Eccentric anomaly
104.48318°
Mean motion
3.81734 °/min
BSTAR
0.000041361
Orbital period
94.31 mins
Loading maneuver chart data...
Loading SW <> Apogee altitude chart data...
Loading historical data...
Loading historical data...
Loading historical data...
Loading historical data...
Loading historical data...
Loading historical data...
Loading historical data...

STARLINK-33612 Visibility forecast

Observer location: undefined°, undefined°

Span
Click to sort rows by Start time (UTC) header in descending order
Start Az.
Max El. time (UTC)
Max El. Az.
Max El.
End time (UTC)
End Az.
6 mins2025-05-09 15:33:30.400Z220.553° SW2025-05-09 15:36:30.400Z157.415° SSE33.455°2025-05-09 15:39:30.400Z84.437° E
5 mins2025-05-09 17:13:30.400Z272.964° WNW2025-05-09 17:15:30.400Z348.052° N41.947°2025-05-09 17:18:30.400Z68.886° E
5 mins2025-05-09 18:52:30.400Z294.988° NW2025-05-09 18:54:30.400Z350.42° N38.906°2025-05-09 18:57:30.400Z81.682° E
5 mins2025-05-09 20:31:30.400Z279.48° WNW2025-05-09 20:33:30.400Z227.269° WSW41.132°2025-05-09 20:36:30.400Z125.489° SE
|